#timestamp,LO_Frequency,Hit,StdDev 
1619409615.1,286047003.2,Y
1619409616.0,286047003.2,P
1619409635.8,286047002.2,P
1619409655.6,286047002.2,P
1619409675.5,286047002.5,Y
1619409695.3,286046999.4,P
1619409715.2,286046998.4,N
1619409735.9,286046998.3,N
1619409755.7,286046999.4,N
1619409775.6,286046998.4,N
1619409795.4,286046999.0,N
1619409815.2,286047000.7,N
1619409835.1,286046998.2,N
1619409836.0,286046998.2,N
1619409855.8,286046996.5,N
1619409875.7,286046998.9,N
1619409895.5,286046999.4,N
1619409915.3,286046998.4,N
1619409935.2,286046999.4,N
1619409955.0,286046996.9,N
1619409955.9,286046996.9,N
1619409975.7,286046999.1,N
1619409995.6,286046999.4,N
1619410015.4,286046998.9,N
1619410035.3,286046999.0,N
1619410055.1,286046996.5,N
1619410056.0,286046996.5,N
1619410075.8,286046999.1,N
1619410095.7,286046999.3,N
1619410115.5,286047000.3,N
1619410135.4,286047000.4,N
1619410155.2,286047001.2,N
1619410175.0,286046998.8,N
1619410175.9,286046998.8,N
1619410195.8,286046998.6,N
1619410215.6,286047000.5,N
1619410235.4,286047000.0,N
1619410255.3,286047002.8,N
1619410275.1,286047002.6,N
1619410295.9,286047001.6,N
1619410315.7,286047002.1,N
1619410335.5,286047003.9,N
1619410355.4,286047001.3,N
1619410375.2,286047003.4,N
1619410395.0,286047003.1,N
1619410396.0,286047003.1,N
1619410415.8,286047004.0,N
1619410435.6,286047004.0,N
1619410455.5,286047001.7,N
1619410475.3,286047002.8,N
1619410495.1,286046999.7,N
1619410515.9,286047004.3,N
1619410535.7,286047004.4,N
1619410555.6,286047003.9,N
1619410575.4,286047004.3,N
1619410595.2,286047001.4,N
1619410615.1,286047002.1,N
1619410616.0,286047002.1,N
1619410635.8,286047001.7,N
1619410655.6,286047001.6,N
1619410675.5,286047001.3,N
1619410695.3,286047001.8,N
1619410715.2,286047002.5,N
1619410735.9,286047002.6,N
1619410755.7,286047002.5,N
1619410775.6,286047001.9,N
1619410795.4,286046999.8,N
1619410815.2,286047001.5,N
1619410835.1,286047003.9,Y
1619410836.0,286047003.9,P
1619410855.8,286047001.4,N
1619410875.7,286047001.9,N
1619410895.5,286047004.4,Y
1619410915.3,286047000.1,P
1619410935.2,286047002.0,N
1619410955.0,286047002.8,N
1619410955.9,286047002.8,N
1619410975.8,286047001.8,N
1619410995.6,286047004.1,Y
1619411015.4,286046998.5,P
1619411035.3,286046998.7,N
1619411055.1,286046999.2,N
1619411075.8,286046996.7,N
1619411095.7,286046997.9,N
1619411115.5,286046996.2,N
1619411135.4,286046994.9,N
1619411155.2,286046997.9,N
1619411175.0,286046998.0,N
1619411175.9,286046998.0,N
1619411195.8,286046995.5,N
1619411215.6,286046996.0,N
1619411235.5,286046993.6,Y
1619411255.3,286046997.8,P
1619411275.1,286046997.1,P
1619411295.9,286046995.3,P
1619411315.7,286046995.5,Y
1619411335.5,286046999.4,P
1619411355.4,286046999.1,N
1619411375.2,286046998.8,N
1619411395.1,286047000.8,N
1619411396.0,286047000.8,N
1619411415.8,286047000.8,N
1619411435.6,286046998.5,N
1619411455.5,286047000.9,N
1619411475.3,286047002.3,N
1619411495.1,286046999.7,N
1619411515.9,286047000.1,N
1619411535.7,286047001.0,N
1619411555.6,286047000.7,N
1619411575.4,286047000.6,N
1619411595.2,286047002.4,N
1619411615.1,286046999.9,N
1619411616.0,286046999.9,N
1619411635.8,286047011.9,Y
1619411655.7,286047002.0,P
1619411675.5,286047001.5,N
1619411695.3,286047002.6,P
1619411715.2,286047002.4,N
1619411735.0,286047000.1,N
1619411735.9,286047000.1,N
1619411755.7,286047001.9,N
1619411775.6,286047001.4,N
1619411795.4,286047001.6,N
1619411815.3,286047003.4,Y
1619411835.1,286047001.7,P
1619411855.8,286047001.9,P
1619411875.7,286047002.6,P
1619411895.5,286047002.7,Y
1619411915.4,286046998.7,P
1619411935.2,286046996.7,N
1619411955.0,286046999.2,N
1619411955.9,286046999.2,N
1619411975.8,286046998.7,N
1619411995.6,286046998.7,N
1619412015.4,286046998.4,N
1619412035.3,286046999.1,N
1619412055.1,286046997.0,N
1619412075.9,286046997.0,N
1619412095.7,286046999.6,N
1619412115.5,286046997.8,N
1619412135.4,286046996.7,N
1619412155.2,286046999.6,N
1619412175.0,286046996.8,N
1619412175.9,286046996.8,N
1619412195.8,286046996.9,N
1619412215.6,286046996.8,N
1619412235.5,286046999.5,N
1619412255.3,286046999.1,N
1619412275.1,286046999.4,N
1619412295.9,286046999.5,N
1619412315.7,286046996.5,N
1619412335.5,286046999.1,N
1619412355.4,286046999.3,N
1619412375.2,286046998.7,N
1619412395.1,286046998.7,N
1619412396.0,286046998.7,N
1619412415.8,286046996.6,N
1619412435.6,286046998.7,N
1619412455.5,286046998.6,N
1619412475.3,286046998.3,N
1619412495.1,286046998.4,N
1619412515.9,286046998.6,N
1619412535.7,286046998.9,N
1619412555.6,286046998.6,N
1619412575.4,286046998.9,N
1619412595.2,286046998.1,N
1619412615.1,286046999.3,N
1619412616.0,286046999.3,N
1619412635.8,286046999.1,N
1619412655.7,286046996.8,Y
1619412675.5,286046998.3,P
1619412695.3,286046999.7,P
1619412715.2,286046999.9,N
1619412735.0,286046999.9,N
1619412735.9,286046999.9,N
1619412755.7,286046999.9,N
1619412775.6,286047000.3,N
1619412795.4,286047001.1,N
1619412815.3,286047001.0,N
1619412835.1,286046998.4,N
1619412836.0,286046998.4,N
1619412855.8,286046999.4,N
1619412875.7,286047001.1,N
1619412895.5,286047000.0,N
1619412915.3,286047000.9,N
1619412935.2,286047001.0,N
1619412955.0,286047000.3,N
1619412955.9,286047000.3,N
1619412975.8,286046999.9,N
1619412995.6,286046999.8,N
1619413015.4,286047002.8,Y
1619413035.3,286047000.4,P
1619413055.1,286047000.6,N
1619413075.9,286047000.7,N
1619413095.7,286046998.9,Y
1619413115.5,286047000.9,P
1619413135.4,286046998.8,P
1619413155.2,286046998.8,N
1619413175.1,286046999.5,N
1619413176.0,286046999.5,N
1619413195.8,286046999.0,N
